Bigfork, MN

8:52 AM CST on February 25, 2017 (GMT -0600)
Bigfork Municipal

Weather History for KFOZ - March, 2013

Change the Weather History Date:

Friday, March 8, 2013

  Actual Average (KGPZ) Record (KGPZ)
Temperature  
Mean Temperature 24 °F -  
Max Temperature 30 °F 33 °F 69 °F (1987)
Min Temperature 19 °F 10 °F -28 °F (1943)
Degree Days  
Heating Degree Days 40    
Moisture  
Dew Point 20 °F    
Average Humidity 80    
Maximum Humidity 86    
Minimum Humidity 74    
Precipitation  
Precipitation 0.00 in - - ()
Sea Level Pressure  
Sea Level Pressure 30.19 in    
Wind  
Wind Speed 5 mph (South)    
Max Wind Speed 8 mph    
Max Gust Speed -    
Visibility 8 miles    
Events      
Averages and records for this station are not official NWS values.
T = Trace of Precipitation, MM = Missing Value Source: NWS Daily Summary

Daily Weather History Graph

Daily Weather History Graph

Search for Another Location

Airport or City:

Trip Planner

Search our weather history database for the weather conditions in past years. The results will help you decide how hot, cold, wet, or windy it might be!

Date:

Astronomy

Mar. 08, 2013 Rise Set
Actual Time 6:41 AM CST 6:10 PM CST
Civil Twilight 6:10 AM CST 6:41 PM CST
Nautical Twilight 5:34 AM CST 7:16 PM CST
Astronomical Twilight 4:58 AM CST 7:53 PM CST
Moon 4:38 AM CST (3/8) 2:55 PM CST (3/8)
Length of Visible Light 12h 30m
Length of Day
11h 29m
Waning Crescent, 11% of the Moon is Illuminated
Mar 8
Waning Crescent
Mar 11
New
Mar 19
First Quarter
Mar 27
Full
Apr 2
Last Quarter

Hourly Weather History & Observations

Time (CST) Temp. Windchill Dew Point Humidity Pressure Visibility Wind Dir Wind Speed Gust Speed Precip Events Conditions
12:13 AM 23.0 °F 13.9 °F 15.8 °F 74% 30.25 in 10.0 mi SSE 8.1 mph - N/A   Clear
12:33 AM 21.2 °F 11.7 °F 15.8 °F 80% 30.25 in 10.0 mi SSE 8.1 mph - N/A   Clear
12:53 AM 21.2 °F 13.6 °F 15.8 °F 80% 30.25 in 10.0 mi SSE 5.8 mph - N/A   Clear
1:13 AM 21.2 °F 13.6 °F 15.8 °F 80% 30.25 in 10.0 mi SSE 5.8 mph - N/A   Clear
1:33 AM 19.4 °F 10.4 °F 15.8 °F 86% 30.25 in 10.0 mi SE 6.9 mph - N/A   Clear
1:53 AM 19.4 °F 12.8 °F 15.8 °F 86% 30.25 in 10.0 mi SE 4.6 mph - N/A   Clear
2:13 AM 19.4 °F 11.5 °F 15.8 °F 86% 30.25 in 10.0 mi SE 5.8 mph - N/A   Clear
2:33 AM 19.4 °F 9.5 °F 15.8 °F 86% 30.23 in 10.0 mi SE 8.1 mph - N/A   Clear
2:53 AM 19.4 °F 11.5 °F 15.8 °F 86% 30.22 in 10.0 mi SE 5.8 mph - N/A   Clear
3:13 AM 19.4 °F 11.5 °F 15.8 °F 86% 30.22 in 10.0 mi SSE 5.8 mph - N/A   Clear
3:33 AM 19.4 °F 12.8 °F 14.0 °F 80% 30.22 in 10.0 mi South 4.6 mph - N/A   Clear
3:53 AM 19.4 °F - 15.8 °F 86% 30.22 in 10.0 mi Calm Calm - N/A   Mostly Cloudy
4:13 AM 19.4 °F 14.3 °F 15.8 °F 86% 30.22 in 10.0 mi SSE 3.5 mph - N/A   Overcast
4:33 AM 19.4 °F 14.3 °F 15.8 °F 86% 30.22 in 10.0 mi SE 3.5 mph - N/A   Mostly Cloudy
4:53 AM 19.4 °F 14.3 °F 15.8 °F 86% 30.22 in 10.0 mi SSE 3.5 mph - N/A   Mostly Cloudy
5:13 AM 19.4 °F - 15.8 °F 86% 30.22 in 10.0 mi Calm Calm - N/A   Overcast
5:33 AM 19.4 °F - 15.8 °F 86% 30.21 in 10.0 mi Calm Calm - N/A   Overcast
5:53 AM 21.2 °F 16.4 °F 15.8 °F 80% 30.21 in 10.0 mi South 3.5 mph - N/A   Overcast
6:33 AM 21.2 °F 14.9 °F 15.8 °F 80% 30.21 in 10.0 mi South 4.6 mph - N/A   Overcast
6:53 AM 21.2 °F 13.6 °F 15.8 °F 80% 30.21 in 10.0 mi SSW 5.8 mph - N/A   Overcast
7:13 AM 21.2 °F 12.6 °F 15.8 °F 80% 30.21 in 10.0 mi South 6.9 mph - N/A   Overcast
7:33 AM 21.2 °F 13.6 °F 15.8 °F 80% 30.21 in 10.0 mi South 5.8 mph - N/A   Overcast
7:53 AM 21.2 °F 13.6 °F 15.8 °F 80% 30.22 in 10.0 mi SSW 5.8 mph - N/A   Overcast
8:13 AM 23.0 °F 14.7 °F 17.6 °F 80% 30.22 in 10.0 mi South 6.9 mph - N/A   Overcast
8:33 AM 23.0 °F 13.9 °F 17.6 °F 80% 30.22 in 10.0 mi SSW 8.1 mph - N/A   Overcast
8:53 AM 23.0 °F 15.8 °F 17.6 °F 80% 30.21 in 10.0 mi South 5.8 mph - N/A   Overcast
9:13 AM 23.0 °F 14.7 °F 17.6 °F 80% 30.21 in 10.0 mi SSW 6.9 mph - N/A   Overcast
9:33 AM 24.8 °F 16.1 °F 17.6 °F 74% 30.21 in 10.0 mi SSW 8.1 mph - N/A   Overcast
9:53 AM 24.8 °F 16.9 °F 17.6 °F 74% 30.22 in 7.0 mi South 6.9 mph - N/A   Overcast
10:13 AM 24.8 °F 17.9 °F 19.4 °F 80% 30.22 in 7.0 mi SSW 5.8 mph - N/A   Overcast
10:33 AM 24.8 °F 17.9 °F 19.4 °F 80% 30.22 in 7.0 mi SW 5.8 mph - N/A   Overcast
10:53 AM 24.8 °F 17.9 °F 19.4 °F 80% 30.22 in 7.0 mi SSW 5.8 mph - N/A   Overcast
11:13 AM 26.6 °F 20.0 °F 19.4 °F 74% 30.22 in 7.0 mi SSW 5.8 mph - N/A   Overcast
11:33 AM 26.6 °F 20.0 °F 19.4 °F 74% 30.22 in 7.0 mi SSW 5.8 mph - N/A   Overcast
11:53 AM 26.6 °F - 21.2 °F 80% 30.21 in 5.0 mi Calm Calm - N/A   Haze
12:13 PM 26.6 °F 20.0 °F 21.2 °F 80% 30.21 in 5.0 mi SSW 5.8 mph - N/A   Haze
12:33 PM 28.4 °F 23.3 °F 21.2 °F 74% 30.21 in 7.0 mi South 4.6 mph - N/A   Overcast
12:53 PM 28.4 °F 23.3 °F 21.2 °F 74% 30.20 in 5.0 mi SSW 4.6 mph - N/A   Haze
1:13 PM 28.4 °F - 21.2 °F 74% 30.19 in 7.0 mi Calm Calm - N/A   Overcast
1:33 PM 28.4 °F - 21.2 °F 74% 30.19 in 7.0 mi Calm Calm - N/A   Overcast
1:53 PM 30.2 °F 25.4 °F 23.0 °F 75% 30.19 in 7.0 mi South 4.6 mph - N/A   Overcast
2:13 PM 30.2 °F 25.4 °F 23.0 °F 75% 30.19 in 5.0 mi South 4.6 mph - N/A   Haze
2:34 PM 30.2 °F 24.3 °F 23.0 °F 75% 30.19 in 7.0 mi SSW 5.8 mph - N/A   Overcast
2:53 PM 30.2 °F 26.7 °F 23.0 °F 75% 30.19 in 7.0 mi SSW 3.5 mph - N/A   Overcast
3:13 PM 30.2 °F 24.3 °F 24.8 °F 80% 30.19 in 7.0 mi SSW 5.8 mph - N/A   Overcast
3:33 PM 30.2 °F 23.4 °F 24.8 °F 80% 30.19 in 7.0 mi South 6.9 mph - N/A   Overcast
3:53 PM 30.2 °F 25.4 °F 24.8 °F 80% 30.19 in 7.0 mi SW 4.6 mph - N/A   Overcast
4:13 PM 30.2 °F 24.3 °F 24.8 °F 80% 30.19 in 7.0 mi SSW 5.8 mph - N/A   Mostly Cloudy
4:33 PM 30.2 °F 24.3 °F 24.8 °F 80% 30.19 in 7.0 mi SSW 5.8 mph - N/A   Mostly Cloudy
4:53 PM 30.2 °F 25.4 °F 24.8 °F 80% 30.19 in 7.0 mi SSW 4.6 mph - N/A   Mostly Cloudy
5:13 PM 30.2 °F 25.4 °F 24.8 °F 80% 30.18 in 7.0 mi SSW 4.6 mph - N/A   Mostly Cloudy
5:33 PM 30.2 °F - 23.0 °F 75% 30.18 in 7.0 mi Calm Calm - N/A   Scattered Clouds
5:53 PM 28.4 °F - 23.0 °F 80% 30.18 in 5.0 mi Calm Calm - N/A   Haze
6:14 PM 28.4 °F - 23.0 °F 80% 30.17 in 7.0 mi Calm Calm - N/A   Clear
6:33 PM 30.2 °F - 24.8 °F 80% 30.16 in 7.0 mi Calm Calm - N/A   Scattered Clouds
6:53 PM 28.4 °F - 24.8 °F 86% 30.16 in 7.0 mi Calm Calm - N/A   Clear
7:13 PM 28.4 °F - 24.8 °F 86% 30.15 in 7.0 mi Calm Calm - N/A   Scattered Clouds
7:33 PM 28.4 °F - 23.0 °F 80% 30.15 in 7.0 mi Calm Calm - N/A   Mostly Cloudy
7:53 PM 28.4 °F - 23.0 °F 80% 30.15 in 7.0 mi Calm Calm - N/A   Overcast
8:13 PM 30.2 °F - 24.8 °F 80% 30.15 in 7.0 mi Calm Calm - N/A   Mostly Cloudy
8:33 PM 30.2 °F - 24.8 °F 80% 30.14 in 7.0 mi Calm Calm - N/A   Scattered Clouds
8:53 PM 30.2 °F - 23.0 °F 75% 30.13 in 7.0 mi Calm Calm - N/A   Scattered Clouds
9:13 PM 28.4 °F - 23.0 °F 80% 30.15 in 7.0 mi Calm Calm - N/A   Scattered Clouds
9:33 PM 28.4 °F - 23.0 °F 80% 30.14 in 7.0 mi Calm Calm - N/A   Scattered Clouds
9:53 PM 26.6 °F - 23.0 °F 86% 30.13 in 5.0 mi Calm Calm - N/A   Clear
10:13 PM 28.4 °F - 23.0 °F 80% 30.12 in 5.0 mi Calm Calm - N/A   Haze
10:33 PM 28.4 °F 23.3 °F 23.0 °F 80% 30.10 in 5.0 mi East 4.6 mph - N/A   Haze
10:53 PM 26.6 °F 22.6 °F 21.2 °F 80% 30.09 in 5.0 mi ESE 3.5 mph - N/A   Haze
11:13 PM 28.4 °F - 23.0 °F 80% 30.09 in 5.0 mi Calm Calm - N/A   Haze
11:33 PM 28.4 °F - 23.0 °F 80% 30.08 in 5.0 mi Calm Calm - N/A   Haze
11:53 PM 26.6 °F - 23.0 °F 86% 30.07 in 5.0 mi Calm Calm - N/A   Clear